When you browse on this site, cookies collect data to enhance your experience and personalize the content and advertising you see.
Visit our Privacy Policy to learn more. By continuing to use the site, you agree to this use of cookies and data.
  • In Czech Republic
  • List of Countries
  • For 7 days
  • Water Temperature
  • Weather Map
  • Weather Widgets
  • user-avatar
    Login

    Hourly Weather Baden-Baden

    Today, 20 October, Sunday

    Time Temperature Precipitation Wind Pressure Humidity
    00:00 +13°C° 0.7 mm 1 mps 724 mmHg 95%
    01:00 +13°C° 0.7 mm 1 mps 724 mmHg 95%
    02:00 +13°C° 0.1 mm 1 mps 724 mmHg 94%
    03:00 +12°C° 0.1 mm 1 mps 724 mmHg 94%
    04:00 +12°C° 0.1 mm 1 mps 723 mmHg 94%
    05:00 +12°C° 0 mm 1 mps 723 mmHg 93%
    06:00 +12°C° 0 mm 1 mps 723 mmHg 93%
    07:00 +11°C° 0 mm 1 mps 723 mmHg 92%
    08:00 +13°C° 0 mm 1 mps 724 mmHg 89%
    09:00 +14°C° 0 mm 1 mps 724 mmHg 85%
    10:00 +15°C° 0 mm 1 mps 724 mmHg 81%
    11:00 +18°C° 0 mm 1 mps 724 mmHg 77%
    12:00 +19°C° 0 mm 1 mps 724 mmHg 72%
    13:00 +20°C° 0 mm 1 mps 724 mmHg 68%
    14:00 +20°C° 0 mm 1 mps 724 mmHg 71%
    15:00 +20°C° 0 mm 1 mps 724 mmHg 74%
    16:00 +20°C° 0 mm 1 mps 724 mmHg 77%
    17:00 +18°C° 0 mm 1 mps 724 mmHg 80%
    18:00 +16°C° 0 mm 1 mps 724 mmHg 84%
    19:00 +15°C° 0 mm 2 mps 724 mmHg 87%
    20:00 +15°C° 0 mm 2 mps 724 mmHg 86%
    21:00 +15°C° 0 mm 2 mps 725 mmHg 86%
    22:00 +15°C° 0 mm 2 mps 725 mmHg 86%
    23:00 +14°C° 0 mm 1 mps 725 mmHg 85%

    Tomorrow, 21 October, Monday

    Time Temperature Precipitation Wind Pressure Humidity
    00:00 +14°C° 0 mm 1 mps 725 mmHg 84%
    01:00 +14°C° 0 mm 1 mps 725 mmHg 83%
    02:00 +14°C° 0 mm 1 mps 726 mmHg 84%
    03:00 +14°C° 0 mm 1 mps 726 mmHg 84%
    04:00 +13°C° 0 mm 2 mps 727 mmHg 84%
    05:00 +13°C° 0 mm 2 mps 727 mmHg 86%
    06:00 +13°C° 0 mm 2 mps 728 mmHg 88%
    07:00 +13°C° 0 mm 2 mps 729 mmHg 90%
    08:00 +14°C° 0 mm 2 mps 730 mmHg 87%
    09:00 +15°C° 0 mm 2 mps 730 mmHg 85%
    10:00 +15°C° 0 mm 1 mps 731 mmHg 82%
    11:00 +15°C° 0 mm 1 mps 731 mmHg 82%
    12:00 +15°C° 0 mm 1 mps 732 mmHg 82%
    13:00 +15°C° 0 mm 1 mps 732 mmHg 82%
    14:00 +15°C° 0.1 mm 1 mps 732 mmHg 83%
    15:00 +14°C° 0.1 mm 1 mps 732 mmHg 85%
    16:00 +14°C° 0.1 mm 1 mps 732 mmHg 86%
    17:00 +14°C° 0.1 mm 1 mps 733 mmHg 87%
    18:00 +13°C° 0.1 mm 1 mps 733 mmHg 88%
    19:00 +12°C° 0.1 mm 0 mps 734 mmHg 89%
    20:00 +13°C° 0.1 mm 1 mps 734 mmHg 89%
    21:00 +12°C° 0.1 mm 1 mps 734 mmHg 90%
    22:00 +12°C° 0.1 mm 1 mps 735 mmHg 90%
    23:00 +12°C° 0.2 mm 1 mps 735 mmHg 91%

    Day after tomorrow, 22 October, Tuesday

    Time Temperature Precipitation Wind Pressure Humidity
    00:00 +12°C° 0.2 mm 1 mps 735 mmHg 92%
    01:00 +12°C° 0.2 mm 1 mps 735 mmHg 93%
    02:00 +12°C° 0.1 mm 1 mps 735 mmHg 93%
    03:00 +12°C° 0.1 mm 1 mps 735 mmHg 93%
    04:00 +12°C° 0.1 mm 1 mps 735 mmHg 93%
    05:00 +12°C° 0 mm 1 mps 735 mmHg 92%
    06:00 +12°C° 0 mm 1 mps 735 mmHg 91%
    07:00 +11°C° 0 mm 0 mps 736 mmHg 90%
    08:00 +12°C° 0 mm 1 mps 736 mmHg 89%
    09:00 +13°C° 0 mm 1 mps 736 mmHg 87%
    10:00 +13°C° 0 mm 1 mps 736 mmHg 85%
    11:00 +14°C° 0 mm 1 mps 736 mmHg 80%
    12:00 +15°C° 0 mm 1 mps 736 mmHg 75%
    13:00 +17°C° 0 mm 2 mps 736 mmHg 70%
    14:00 +16°C° 0 mm 2 mps 735 mmHg 72%
    15:00 +16°C° 0 mm 2 mps 735 mmHg 74%
    16:00 +16°C° 0 mm 2 mps 735 mmHg 75%
    17:00 +14°C° 0 mm 2 mps 734 mmHg 79%
    18:00 +13°C° 0 mm 2 mps 734 mmHg 83%
    19:00 +12°C° 0 mm 2 mps 734 mmHg 87%
    20:00 +12°C° 0 mm 2 mps 734 mmHg 88%
    21:00 +10°C° 0 mm 2 mps 734 mmHg 89%
    22:00 +10°C° 0 mm 2 mps 734 mmHg 90%
    23:00 +10°C° 0 mm 2 mps 733 mmHg 90%

    23 October, Wednesday

    Time Temperature Precipitation Wind Pressure Humidity
    00:00 +10°C° 0 mm 2 mps 733 mmHg 91%
    01:00 +10°C° 0 mm 2 mps 733 mmHg 91%
    02:00 +9°C° 0 mm 2 mps 732 mmHg 92%
    03:00 +9°C° 0 mm 2 mps 732 mmHg 92%
    04:00 +9°C° 0 mm 2 mps 732 mmHg 92%
    05:00 +9°C° 0 mm 2 mps 732 mmHg 93%
    06:00 +9°C° 0 mm 2 mps 731 mmHg 93%
    07:00 +9°C° 0 mm 2 mps 731 mmHg 93%
    08:00 +10°C° 0 mm 2 mps 731 mmHg 89%
    09:00 +13°C° 0 mm 2 mps 731 mmHg 85%
    10:00 +14°C° 0 mm 2 mps 731 mmHg 81%
    11:00 +15°C° 0 mm 2 mps 730 mmHg 78%
    12:00 +16°C° 0 mm 2 mps 730 mmHg 74%
    13:00 +17°C° 0 mm 2 mps 730 mmHg 71%
    14:00 +17°C° 0 mm 2 mps 729 mmHg 74%
    15:00 +17°C° 0 mm 2 mps 729 mmHg 77%
    16:00 +16°C° 0 mm 2 mps 728 mmHg 79%
    17:00 +15°C° 0 mm 2 mps 728 mmHg 83%
    18:00 +14°C° 0 mm 2 mps 727 mmHg 87%
    19:00 +13°C° 0 mm 2 mps 727 mmHg 91%
    20:00 +13°C° 0 mm 2 mps 727 mmHg 91%
    21:00 +12°C° 0 mm 2 mps 727 mmHg 92%
    22:00 +12°C° 0 mm 2 mps 727 mmHg 92%
    23:00 +12°C° 0 mm 2 mps 727 mmHg 92%

    24 October, Thursday

    Time Temperature Precipitation Wind Pressure Humidity
    00:00 +10°C° 0 mm 2 mps 726 mmHg 92%
    01:00 +11°C° 0 mm 1 mps 726 mmHg 91%
    02:00 +11°C° 0 mm 1 mps 726 mmHg 92%
    03:00 +11°C° 0 mm 1 mps 726 mmHg 92%
    04:00 +11°C° 0 mm 1 mps 726 mmHg 92%
    05:00 +11°C° 0 mm 1 mps 726 mmHg 92%
    06:00 +11°C° 0 mm 1 mps 726 mmHg 93%
    07:00 +10°C° 0 mm 0 mps 726 mmHg 93%
    08:00 +11°C° 0 mm 0 mps 727 mmHg 87%
    09:00 +13°C° 0 mm 0 mps 727 mmHg 82%
    10:00 +15°C° 0 mm 0 mps 727 mmHg 77%
    11:00 +18°C° 0 mm 1 mps 727 mmHg 74%
    12:00 +19°C° 0 mm 1 mps 727 mmHg 71%
    13:00 +20°C° 0 mm 1 mps 727 mmHg 68%
    14:00 +19°C° 0 mm 1 mps 727 mmHg 71%
    15:00 +19°C° 0 mm 1 mps 727 mmHg 74%
    16:00 +19°C° 0 mm 1 mps 726 mmHg 76%
    17:00 +16°C° 0 mm 1 mps 727 mmHg 81%
    18:00 +15°C° 0 mm 1 mps 727 mmHg 85%
    19:00 +14°C° 0 mm 1 mps 727 mmHg 90%
    20:00 +13°C° 0 mm 1 mps 727 mmHg 90%
    21:00 +13°C° 0 mm 1 mps 728 mmHg 90%
    22:00 +13°C° 0 mm 1 mps 729 mmHg 91%
    23:00 +13°C° 0 mm 1 mps 729 mmHg 91%

    25 October, Friday

    Time Temperature Precipitation Wind Pressure Humidity
    00:00 +14°C° 0 mm 2 mps 729 mmHg 90%
    01:00 +14°C° 0 mm 2 mps 730 mmHg 90%
    02:00 +13°C° 0 mm 2 mps 730 mmHg 92%
    03:00 +13°C° 0 mm 2 mps 730 mmHg 93%
    04:00 +12°C° 0 mm 2 mps 730 mmHg 95%
    05:00 +12°C° 0 mm 1 mps 730 mmHg 95%
    06:00 +12°C° 0 mm 1 mps 730 mmHg 95%
    07:00 +11°C° 0 mm 1 mps 730 mmHg 95%
    08:00 +13°C° 0 mm 1 mps 730 mmHg 91%
    09:00 +14°C° 0 mm 1 mps 731 mmHg 87%
    10:00 +15°C° 0 mm 1 mps 731 mmHg 82%
    11:00 +16°C° 0 mm 1 mps 731 mmHg 80%
    12:00 +18°C° 0 mm 1 mps 731 mmHg 77%
    13:00 +18°C° 0 mm 2 mps 731 mmHg 74%
    14:00 +18°C° 0 mm 2 mps 731 mmHg 75%
    15:00 +17°C° 0 mm 2 mps 730 mmHg 76%
    16:00 +17°C° 0 mm 2 mps 730 mmHg 78%
    17:00 +16°C° 0 mm 2 mps 730 mmHg 81%
    18:00 +15°C° 0 mm 2 mps 731 mmHg 84%
    19:00 +14°C° 0 mm 2 mps 731 mmHg 88%
    20:00 +14°C° 0 mm 2 mps 731 mmHg 88%
    21:00 +14°C° 0 mm 2 mps 732 mmHg 88%
    22:00 +14°C° 0 mm 2 mps 732 mmHg 87%
    23:00 +13°C° 0 mm 2 mps 732 mmHg 89%
    Show more